TimeCDT,TemperatureF,Dew PointF,Humidity,Sea Level PressureIn,VisibilityMPH,Wind Direction,Wind SpeedMPH,Gust SpeedMPH,PrecipitationIn,Events,Conditions,WindDirDegrees,DateUTC
12:15 AM,44.6,42.8,93,29.74,10.0,NE,4.6,-,N/A,,Overcast,40,2012-10-14 05:15:00
12:35 AM,46.4,42.8,87,29.74,10.0,NE,6.9,-,N/A,,Overcast,50,2012-10-14 05:35:00
12:55 AM,44.6,42.8,93,29.74,10.0,NE,5.8,-,N/A,,Overcast,40,2012-10-14 05:55:00
1:15 AM,44.6,42.8,93,29.74,10.0,NE,5.8,-,N/A,,Overcast,40,2012-10-14 06:15:00
1:35 AM,44.6,42.8,93,29.74,10.0,NNE,5.8,-,N/A,,Overcast,20,2012-10-14 06:35:00
1:55 AM,44.6,42.8,93,29.74,10.0,NE,5.8,-,N/A,,Overcast,40,2012-10-14 06:55:00
2:15 AM,44.6,42.8,93,29.73,10.0,NNE,5.8,-,N/A,,Overcast,30,2012-10-14 07:15:00
2:35 AM,44.6,42.8,93,29.73,10.0,NNE,6.9,-,N/A,,Overcast,30,2012-10-14 07:35:00
2:55 AM,44.6,42.8,93,29.74,10.0,NNE,5.8,-,N/A,,Scattered Clouds,20,2012-10-14 07:55:00
3:15 AM,44.6,42.8,93,29.74,10.0,NNE,5.8,-,N/A,,Scattered Clouds,30,2012-10-14 08:15:00
3:35 AM,44.6,42.8,93,29.75,10.0,ENE,5.8,-,N/A,,Overcast,60,2012-10-14 08:35:00
3:55 AM,44.6,42.8,93,29.74,10.0,NNE,8.1,-,N/A,,Overcast,30,2012-10-14 08:55:00
4:15 AM,44.6,42.8,93,29.74,10.0,NNE,8.1,-,N/A,,Overcast,30,2012-10-14 09:15:00
4:35 AM,44.6,42.8,93,29.74,10.0,NNE,8.1,-,N/A,,Overcast,20,2012-10-14 09:35:00
4:55 AM,44.6,42.8,93,29.73,10.0,NNE,8.1,-,N/A,,Overcast,20,2012-10-14 09:55:00
5:15 AM,44.6,42.8,93,29.73,10.0,NNE,8.1,-,N/A,,Overcast,20,2012-10-14 10:15:00
5:35 AM,44.6,42.8,93,29.72,10.0,NNE,9.2,-,N/A,,Overcast,20,2012-10-14 10:35:00
5:55 AM,44.6,42.8,93,29.72,10.0,NNE,5.8,9.2,N/A,,Overcast,20,2012-10-14 10:55:00
6:15 AM,44.6,42.8,93,29.73,10.0,North,10.4,-,N/A,,Overcast,10,2012-10-14 11:15:00
6:35 AM,42.8,41.0,93,29.72,10.0,NNE,11.5,-,N/A,,Overcast,20,2012-10-14 11:35:00
6:55 AM,42.8,41.0,93,29.72,10.0,North,9.2,-,N/A,,Overcast,10,2012-10-14 11:55:00
7:15 AM,42.8,41.0,93,29.71,10.0,NNE,10.4,-,N/A,,Overcast,20,2012-10-14 12:15:00
7:35 AM,42.8,41.0,93,29.72,10.0,North,11.5,16.1,N/A,,Overcast,10,2012-10-14 12:35:00
7:55 AM,42.8,41.0,93,29.72,10.0,North,10.4,-,N/A,,Overcast,10,2012-10-14 12:55:00
8:15 AM,42.8,39.2,87,29.73,10.0,North,9.2,-,N/A,,Overcast,10,2012-10-14 13:15:00
8:35 AM,42.8,39.2,87,29.74,10.0,North,10.4,-,N/A,,Overcast,10,2012-10-14 13:35:00
8:55 AM,42.8,39.2,87,29.74,10.0,North,12.7,16.1,N/A,,Overcast,350,2012-10-14 13:55:00
9:15 AM,42.8,39.2,87,29.74,10.0,North,9.2,17.3,N/A,,Overcast,360,2012-10-14 14:15:00
9:35 AM,42.8,39.2,87,29.73,10.0,North,13.8,-,N/A,,Overcast,360,2012-10-14 14:35:00
9:55 AM,41.0,37.4,87,29.74,10.0,North,12.7,19.6,N/A,,Overcast,360,2012-10-14 14:55:00
10:15 AM,42.8,37.4,81,29.74,10.0,North,13.8,18.4,N/A,,Overcast,10,2012-10-14 15:15:00
10:35 AM,42.8,37.4,81,29.74,10.0,North,12.7,20.7,N/A,,Overcast,360,2012-10-14 15:35:00
10:55 AM,42.8,37.4,81,29.74,10.0,North,16.1,24.2,N/A,,Overcast,10,2012-10-14 15:55:00
11:15 AM,42.8,37.4,81,29.73,10.0,North,16.1,21.9,N/A,,Overcast,10,2012-10-14 16:15:00
11:35 AM,42.8,37.4,81,29.73,10.0,North,11.5,19.6,N/A,,Overcast,360,2012-10-14 16:35:00
11:55 AM,42.8,37.4,81,29.73,10.0,North,16.1,-,N/A,,Overcast,360,2012-10-14 16:55:00
12:15 PM,44.6,35.6,71,29.73,10.0,North,16.1,23.0,N/A,,Mostly Cloudy,360,2012-10-14 17:15:00
12:35 PM,44.6,35.6,71,29.73,10.0,North,15.0,20.7,N/A,,Overcast,350,2012-10-14 17:35:00
12:55 PM,44.6,35.6,71,29.73,10.0,North,15.0,24.2,N/A,,Overcast,360,2012-10-14 17:55:00
1:15 PM,44.6,35.6,71,29.73,10.0,North,17.3,24.2,N/A,,Mostly Cloudy,350,2012-10-14 18:15:00
1:35 PM,46.4,35.6,66,29.73,10.0,North,15.0,21.9,N/A,,Mostly Cloudy,350,2012-10-14 18:35:00
1:55 PM,46.4,35.6,66,29.72,10.0,NNW,19.6,25.3,N/A,,Scattered Clouds,340,2012-10-14 18:55:00
2:15 PM,48.2,35.6,62,29.73,10.0,NNW,16.1,19.6,N/A,,Scattered Clouds,340,2012-10-14 19:15:00
2:35 PM,50.0,35.6,58,29.73,10.0,NNW,15.0,25.3,N/A,,Scattered Clouds,340,2012-10-14 19:35:00
3:15 PM,51.8,33.8,50,29.73,10.0,North,17.3,23.0,N/A,,Scattered Clouds,360,2012-10-14 20:15:00
3:35 PM,50.0,32.0,50,29.74,10.0,North,13.8,20.7,N/A,,Clear,10,2012-10-14 20:35:00
3:55 PM,50.0,32.0,50,29.74,10.0,North,16.1,24.2,N/A,,Scattered Clouds,350,2012-10-14 20:55:00
4:15 PM,50.0,32.0,50,29.74,10.0,NNE,17.3,21.9,N/A,,Scattered Clouds,20,2012-10-14 21:15:00
4:35 PM,50.0,32.0,50,29.76,10.0,North,9.2,-,N/A,,Clear,10,2012-10-14 21:35:00
4:55 PM,50.0,32.0,50,29.77,10.0,North,17.3,20.7,N/A,,Clear,350,2012-10-14 21:55:00
5:15 PM,48.2,30.2,50,29.78,10.0,North,11.5,23.0,N/A,,Clear,360,2012-10-14 22:15:00
5:35 PM,46.4,30.2,53,29.78,10.0,NNE,11.5,-,N/A,,Clear,20,2012-10-14 22:35:00
5:55 PM,46.4,32.0,57,29.79,10.0,North,4.6,-,N/A,,Clear,10,2012-10-14 22:55:00
6:15 PM,44.6,32.0,61,29.79,10.0,North,4.6,-,N/A,,Clear,10,2012-10-14 23:15:00
6:55 PM,42.8,32.0,66,29.80,10.0,Calm,Calm,-,N/A,,Clear,0,2012-10-14 23:55:00
7:15 PM,41.0,32.0,70,29.80,10.0,Calm,Calm,-,N/A,,Clear,0,2012-10-15 00:15:00
7:35 PM,39.2,32.0,75,29.81,10.0,NNW,3.5,-,N/A,,Clear,330,2012-10-15 00:35:00
7:55 PM,37.4,32.0,81,29.81,10.0,NW,3.5,-,N/A,,Clear,320,2012-10-15 00:55:00
8:15 PM,37.4,32.0,81,29.81,10.0,NW,3.5,-,N/A,,Clear,310,2012-10-15 01:15:00
8:35 PM,33.8,30.2,87,29.81,7.0,NW,3.5,-,N/A,,Clear,310,2012-10-15 01:35:00
8:55 PM,33.8,30.2,87,29.82,10.0,NW,4.6,-,N/A,,Clear,310,2012-10-15 01:55:00
9:15 PM,33.8,30.2,87,29.82,10.0,NW,4.6,-,N/A,,Clear,310,2012-10-15 02:15:00
9:35 PM,35.6,30.2,81,29.83,10.0,NW,3.5,-,N/A,,Mostly Cloudy,320,2012-10-15 02:35:00
9:55 PM,35.6,32.0,87,29.83,10.0,NNW,4.6,-,N/A,,Overcast,330,2012-10-15 02:55:00
10:15 PM,35.6,32.0,87,29.83,10.0,NW,3.5,-,N/A,,Overcast,320,2012-10-15 03:15:00
10:35 PM,35.6,32.0,87,29.84,10.0,Calm,Calm,-,N/A,,Overcast,0,2012-10-15 03:35:00
10:55 PM,35.6,32.0,87,29.83,10.0,Calm,Calm,-,N/A,,Overcast,0,2012-10-15 03:55:00
11:15 PM,35.6,32.0,87,29.84,10.0,Calm,Calm,-,N/A,,Mostly Cloudy,0,2012-10-15 04:15:00
11:35 PM,35.6,32.0,87,29.84,10.0,Calm,Calm,-,N/A,,Mostly Cloudy,0,2012-10-15 04:35:00
11:55 PM,35.6,32.0,87,29.84,10.0,West,3.5,-,N/A,,Scattered Clouds,280,2012-10-15 04:55:00